PST,Max TemperatureF,Mean TemperatureF,Min TemperatureF,Max Dew PointF,MeanDew PointF,Min DewpointF,Max Humidity, Mean Humidity, Min Humidity, Max Sea Level PressureIn, Mean Sea Level PressureIn, Min Sea Level PressureIn, Max VisibilityMiles, Mean VisibilityMiles, Min VisibilityMiles, Max Wind SpeedMPH, Mean Wind SpeedMPH, Max Gust SpeedMPH,PrecipitationIn, CloudCover, Events, WindDirDegrees
2013-1-1,52,41,30,42,34,30,100,82,53,30.31,30.27,30.24,10,9,2,8,4,,0.01,0,,104
2013-1-2,54,42,30,39,33,28,96,79,38,30.23,30.17,30.11,10,9,2,8,5,,0.00,0,,103
2013-1-3,55,44,34,43,38,31,100,78,52,30.32,30.21,30.09,10,9,2,12,5,21,0.00,4,Rain,139
2013-1-4,51,43,35,45,39,34,100,93,71,30.32,30.25,30.18,10,8,2,7,3,,0.01,1,,104
2013-1-5,48,42,37,45,41,36,100,94,80,30.22,30.18,30.15,10,8,1,7,2,69,0.09,5,Rain,98
2013-1-6,51,42,33,45,40,34,100,92,74,30.27,30.22,30.16,10,6,2,14,2,,0.01,4,,356
2013-1-7,50,46,43,50,47,41,100,97,86,30.35,30.30,30.24,10,4,0,5,1,,0.01,8,Fog-Rain,120
2013-1-8,50,44,37,47,44,37,100,98,86,30.34,30.27,30.13,10,6,0,7,2,,0.01,6,Fog,45
2013-1-9,48,42,37,48,42,33,100,94,68,30.15,30.09,30.02,10,6,0,17,7,29,0.66,7,Fog-Rain,77
2013-1-10,45,40,34,39,36,34,100,91,71,30.28,30.20,30.11,10,9,2,9,3,,0.37,7,Rain,27
2013-1-11,46,40,32,39,36,32,100,91,76,30.28,30.26,30.22,10,9,5,8,2,,0.08,6,Rain,47
2013-1-12,45,38,28,34,31,27,100,84,49,30.30,30.27,30.24,10,10,5,12,4,,0.00,5,,80
2013-1-13,46,36,27,30,28,25,96,78,46,30.34,30.30,30.27,10,10,6,13,3,32,0.01,0,,50
2013-1-14,48,37,26,35,29,25,96,80,42,30.45,30.41,30.34,10,9,5,12,4,,0.00,0,,76
2013-1-15,48,38,28,38,33,27,100,87,63,30.51,30.46,30.41,10,8,2,5,2,,0.01,0,,47
2013-1-16,48,39,30,43,37,30,100,95,77,30.45,30.35,30.28,10,6,0,6,1,,0.01,1,Fog,157
2013-1-17,41,36,32,41,37,32,100,100,100,30.31,30.24,30.19,9,1,0,5,1,,0.01,8,Fog,77
2013-1-18,45,36,28,42,34,28,100,99,87,30.27,30.21,30.18,10,2,0,5,1,,0.01,5,Fog,356
2013-1-19,48,38,28,44,35,27,100,97,83,30.29,30.23,30.18,10,3,0,6,1,,0.02,2,Fog,336
2013-1-20,54,42,30,45,37,30,100,86,59,30.26,30.22,30.16,10,8,2,5,2,,0.01,1,,27
2013-1-21,68,52,35,43,35,26,97,71,21,30.19,30.14,30.08,10,10,7,8,4,,0.00,0,,87
2013-1-22,60,48,37,43,37,32,90,70,41,30.09,29.99,29.91,10,10,5,7,4,,0.00,0,,85
2013-1-23,63,54,45,52,47,24,100,89,24,30.14,30.01,29.81,10,5,0,18,4,30,0.78,8,Fog-Rain,165
2013-1-24,53,48,44,52,48,45,100,98,86,30.23,30.16,30.11,10,2,0,6,1,,0.01,7,Fog,318
2013-1-25,54,50,45,52,48,45,100,98,89,30.21,30.13,30.07,10,4,0,10,2,,0.42,8,Fog-Rain,215
2013-1-26,50,43,36,45,41,36,100,94,77,30.19,30.10,30.07,10,8,2,7,2,,0.13,5,Rain,38
2013-1-27,48,42,35,42,39,35,100,92,74,30.29,30.23,30.16,10,8,2,9,3,,0.20,5,Rain,29
2013-1-28,48,44,39,44,42,39,100,93,80,30.45,30.34,30.22,10,8,2,14,4,,0.05,7,Rain,350
2013-1-29,51,45,39,45,43,39,100,94,71,30.53,30.48,30.42,10,7,2,18,2,24,0.05,7,Rain,21
2013-1-30,53,45,37,46,41,37,100,91,66,30.51,30.44,30.36,10,8,1,13,2,,0.00,4,,51
2013-1-31,48,42,35,45,40,36,100,98,80,30.39,30.32,30.22,10,3,0,7,3,,0.01,4,Fog,87